This demonstration page uses our WeatherBlox Daily Observations layout. Learn more.

Left ArrowRight Arrow

53.62937, 11.41316

Hourly Observations for January 30, 2022

Temp ( °F °C ) Dew Point ( °F °C ) Humidity (%) Winds ( mph kmh ) Pressure ( in mb ) Visibility ( mi km ) Precip ( " mm )
12:20 am 00:20 Mostly Cloudy 45 7 36 2 71 71 W 28 44 29.77 1008 30 48 N/A
12:50 am 00:50 Mostly Cloudy 41 5 36 2 81 81 WNW 26 43 29.77 1008 4 6 N/A
1:20 am 01:20 Mostly Cloudy 43 6 34 1 71 71 W 26 43 29.77 1008 30 48 N/A
1:50 am 01:50 Mostly Cloudy 43 6 34 1 71 71 W 22 35 29.77 1008 30 48 N/A
2:20 am 02:20 Mostly Cloudy 43 6 34 1 71 71 WNW 25 41 29.77 1008 30 48 N/A
2:50 am 02:50 Partly Cloudy 43 6 34 1 71 71 WNW 32 52 29.77 1008 30 48 N/A
3:50 am 03:50 Mostly Cloudy 43 6 32 0 66 66 W 28 44 29.80 1009 30 48 N/A
4:20 am 04:20 Mostly Cloudy 43 6 34 1 71 71 WNW 31 50 29.80 1009 30 48 N/A
4:50 am 04:50 Partly Cloudy 43 6 34 1 71 71 WNW 30 48 29.77 1008 30 48 N/A
5:20 am 05:20 Mostly Cloudy 43 6 34 1 71 71 W 29 46 29.80 1009 30 48 N/A
5:50 am 05:50 Mostly Cloudy 43 6 32 0 66 66 WNW 33 54 29.80 1009 30 48 N/A
6:20 am 06:20 Mostly Cloudy 43 6 32 0 66 66 WNW 33 54 29.80 1009 30 48 N/A
6:50 am 06:50 Mostly Cloudy 43 6 34 1 71 71 WNW 31 50 29.83 1010 30 48 N/A
7:20 am 07:20 Mostly Cloudy 43 6 32 0 66 66 WNW 29 46 29.86 1011 30 48 N/A
7:50 am 07:50 Mostly Cloudy 43 6 32 0 66 66 WNW 28 44 29.86 1011 30 48 N/A
8:20 am 08:20 Mostly Cloudy 43 6 32 0 66 66 WNW 30 48 29.89 1012 30 48 N/A
8:50 am 08:50 Mostly Cloudy 43 6 32 0 66 66 WNW 28 44 29.92 1013 30 48 N/A
9:20 am 09:20 Mostly Cloudy 43 6 30 -1 61 61 WNW 28 44 29.92 1013 30 48 N/A
9:50 am 09:50 Mostly Cloudy 43 6 32 0 66 66 WNW 21 33 29.95 1014 30 48 N/A
10:20 am 10:20 Partly Cloudy 43 6 30 -1 61 61 NW 23 37 29.97 1015 30 48 N/A
10:50 am 10:50 Partly Cloudy 43 6 30 -1 61 61 NW 24 39 29.97 1015 30 48 N/A
11:20 am 11:20 Mostly Sunny 43 6 30 -1 61 61 WNW 22 35 30.00 1016 30 48 N/A
11:50 am 11:50 Mostly Sunny 45 7 30 -1 57 57 WNW 20 31 30.00 1016 30 48 N/A
12:20 pm 12:20 Mostly Sunny 45 7 30 -1 57 57 WNW 22 35 30.03 1017 30 48 N/A
12:50 pm 12:50 Mostly Sunny 45 7 30 -1 57 57 WNW 21 33 30.03 1017 30 48 N/A
1:20 pm 13:20 Mostly Sunny 45 7 28 -2 53 53 WNW 20 31 30.03 1017 30 48 N/A
1:50 pm 13:50 Mostly Sunny 45 7 28 -2 53 53 WNW 20 31 30.03 1017 30 48 N/A
2:20 pm 14:20 Mostly Sunny 45 7 28 -2 53 53 WNW 21 33 30.06 1018 30 48 N/A
2:50 pm 14:50 Mostly Cloudy 43 6 28 -2 57 57 WNW 18 30 30.06 1018 30 48 N/A
3:20 pm 15:20 Mostly Cloudy 43 6 28 -2 57 57 WNW 20 31 30.06 1018 30 48 N/A
3:50 pm 15:50 Mostly Cloudy 43 6 27 -3 53 53 WNW 21 33 30.06 1018 30 48 N/A
4:20 pm 16:20 Mostly Cloudy 43 6 28 -2 57 57 WNW 22 35 30.06 1018 30 48 N/A
4:50 pm 16:50 Mostly Cloudy 43 6 28 -2 57 57 WNW 16 26 30.09 1019 30 48 N/A
5:20 pm 17:20 Mostly Cloudy 41 5 28 -2 61 61 WNW 18 30 30.06 1018 30 48 N/A
6:20 pm 18:20 Mostly Cloudy 41 5 30 -1 66 66 WNW 12 19 30.09 1019 30 48 N/A
6:50 pm 18:50 Mostly Cloudy 41 5 28 -2 61 61 WNW 13 20 30.09 1019 30 48 N/A
7:20 pm 19:20 Mostly Cloudy 41 5 28 -2 61 61 WNW 13 20 30.09 1019 30 48 N/A
7:50 pm 19:50 Mostly Cloudy 41 5 28 -2 61 61 W 13 20 30.09 1019 30 48 N/A
8:20 pm 20:20 Mostly Cloudy 41 5 28 -2 61 61 WNW 14 22 30.06 1018 30 48 N/A
8:50 pm 20:50 Mostly Cloudy 41 5 30 -1 66 66 WNW 13 20 30.06 1018 30 48 N/A
9:20 pm 21:20 Cloudy 41 5 28 -2 61 61 WNW 13 20 30.06 1018 30 48 N/A
9:50 pm 21:50 Cloudy 41 5 28 -2 61 61 W 10 17 30.03 1017 30 48 N/A
10:20 pm 22:20 Cloudy 39 4 30 -1 70 70 W 8 13 30.03 1017 30 48 N/A
10:50 pm 22:50 Mostly Cloudy 39 4 32 0 75 75 W 8 13 30.03 1017 30 48 N/A
11:20 pm 23:20 Mostly Cloudy 39 4 32 0 75 75 W 8 13 30.00 1016 30 48 N/A
11:50 pm 23:50 Mostly Cloudy 39 4 32 0 75 75 WSW 6 9 29.98 1015 30 48 N/A

Powered by AerisWeather